TimeCST,TemperatureF,Dew PointF,Humidity,Sea Level PressureIn,VisibilityMPH,Wind Direction,Wind SpeedMPH,Gust SpeedMPH,PrecipitationIn,Events,Conditions,WindDirDegrees,DateUTC
12:53 AM,52.0,37.9,59,30.38,10.0,NNE,11.5,-,N/A,,Overcast,20,2011-12-17 06:53:00
1:53 AM,51.1,36.0,56,30.38,10.0,NNE,9.2,-,N/A,,Overcast,30,2011-12-17 07:53:00
2:53 AM,51.1,36.0,56,30.38,10.0,NNE,10.4,16.1,N/A,,Overcast,20,2011-12-17 08:53:00
3:53 AM,50.0,35.1,57,30.39,10.0,NE,5.8,16.1,N/A,,Overcast,40,2011-12-17 09:53:00
4:53 AM,50.0,35.1,57,30.39,10.0,NE,6.9,-,N/A,,Overcast,40,2011-12-17 10:53:00
5:53 AM,50.0,34.0,54,30.40,10.0,NNE,9.2,-,N/A,,Overcast,30,2011-12-17 11:53:00
6:53 AM,50.0,34.0,54,30.42,10.0,NNE,9.2,-,N/A,,Overcast,30,2011-12-17 12:53:00
7:53 AM,50.0,35.1,57,30.45,10.0,NNE,6.9,-,N/A,,Overcast,20,2011-12-17 13:53:00
8:53 AM,50.0,33.1,52,30.46,10.0,NE,12.7,-,N/A,,Overcast,40,2011-12-17 14:53:00
9:53 AM,51.1,32.0,48,30.49,10.0,NE,10.4,-,N/A,,Overcast,40,2011-12-17 15:53:00
10:53 AM,52.0,34.0,50,30.48,10.0,ENE,8.1,-,N/A,,Overcast,60,2011-12-17 16:53:00
11:53 AM,54.0,35.1,49,30.47,10.0,NNE,5.8,-,N/A,,Overcast,30,2011-12-17 17:53:00
12:53 PM,55.0,36.0,49,30.44,10.0,North,6.9,-,N/A,,Overcast,10,2011-12-17 18:53:00
1:53 PM,55.9,36.0,47,30.40,10.0,Variable,4.6,-,N/A,,Overcast,0,2011-12-17 19:53:00
2:53 PM,57.9,34.0,41,30.40,10.0,NE,5.8,-,N/A,,Overcast,40,2011-12-17 20:53:00
3:53 PM,57.9,34.0,41,30.39,10.0,NE,4.6,-,N/A,,Overcast,40,2011-12-17 21:53:00
4:53 PM,57.9,34.0,41,30.38,10.0,NE,4.6,-,N/A,,Overcast,50,2011-12-17 22:53:00
6:53 PM,55.9,37.9,51,30.42,10.0,Calm,Calm,-,N/A,,Overcast,0,2011-12-18 00:53:00
7:53 PM,55.9,39.9,55,30.42,10.0,Calm,Calm,-,N/A,,Overcast,0,2011-12-18 01:53:00
8:53 PM,54.0,44.1,69,30.43,10.0,Calm,Calm,-,N/A,,Overcast,0,2011-12-18 02:53:00
9:53 PM,55.0,41.0,59,30.44,10.0,Calm,Calm,-,N/A,,Overcast,0,2011-12-18 03:53:00
10:53 PM,55.0,37.0,51,30.43,10.0,ENE,4.6,-,N/A,,Overcast,60,2011-12-18 04:53:00
11:53 PM,55.0,37.0,51,30.42,10.0,ENE,4.6,-,N/A,,Overcast,60,2011-12-18 05:53:00